Location: Central Falls
(41.8900°N, 71.3929°W)
Time: 15:25:34
(UTC+00:00)

Vanguard 1 - Pass Details

Date: 12 December 2023
Orbit: 653 x 3826 km, 34.3° (Epoch: 24 February)

Event Time Altitude Azimuth Distance (km) Brightness Sun altitude
Rises 01:34:25 0° 277° (W) 6,298 14.9 -47.4°
Reaches altitude 10° 01:38:06 10° 273° (W) 5,628 14.4 -48.1°
Maximum altitude 01:56:13 55° 203° (SSW) 4,144 12.9 -51.3°
Enters shadow 01:57:52 55° 191° (S) 4,207 12.9 -51.6°
Drops below altitude 10° 02:18:28 10° 133° (SE) 6,707 - -55.2°
Sets 02:23:25 0° 130° (SE) 7,513 - -56.1°
